KE0FIN Weather Reports


time (UTC)temp
C
wind
direction
speed
KPH
gust
KPH
rain 1hr
cm
rain 24hr
cm
rain mn
cm
humidity
%
barometer
mb
20260507170004 17 126 3.2 12.9 0.00 0.00 0.00 48 1067.2
20260507165459 16 142 4.8 9.7 0.00 0.00 0.00 49 1067.2
20260507164956 16 133 3.2 11.3 0.00 0.00 0.00 51 1067.3
20260507164453 16 13 9.7 12.9 0.00 0.00 0.00 50 1067.4
20260507163949 16 206 3.2 6.4 0.00 0.00 0.00 51 1067.5
20260507163447 16 117 1.6 11.3 0.00 0.00 0.00 52 1067.4
20260507162944 16 172 4.8 9.7 0.00 0.00 0.00 55 1067.8
20260507162439 16 182 4.8 22.5 0.00 0.00 0.00 54 1067.7
20260507161936 15 148 3.2 11.3 0.00 0.00 0.00 55 1067.8
20260507161432 15 301 6.4 11.3 0.00 0.00 0.00 56 1067.8
20260507160929 15 293 3.2 9.7 0.00 0.00 0.00 56 1067.9
20260507160425 15 207 8.0 14.5 0.00 0.00 0.00 56 1068.0
20260507155921 15 197 4.8 11.3 0.00 0.00 0.00 57 1068.1
20260507155417 15 144 6.4 11.3 0.00 0.00 0.00 56 1068.0
20260507154915 15 160 4.8 12.9 0.00 0.00 0.00 57 1067.8
20260507154411 15 176 4.8 6.4 0.00 0.00 0.00 59 1067.9
20260507153909 15 209 6.4 12.9 0.00 0.00 0.00 59 1068.0
20260507153405 15 131 4.8 6.4 0.00 0.00 0.00 59 1067.9
20260507152901 15 157 4.8 12.9 0.00 0.00 0.00 59 1067.8
20260507152358 15 188 3.2 9.7 0.00 0.00 0.00 60 1068.1
20260507151854 15 321 3.2 12.9 0.00 0.00 0.00 60 1068.1
20260507151351 15 130 0.0 6.4 0.00 0.00 0.00 62 1068.4
20260507150847 14 203 3.2 9.7 0.00 0.00 0.00 63 1068.4
20260507150344 13 74 3.2 14.5 0.00 0.00 0.00 63 1068.6
20260507145840 13 295 6.4 12.9 0.00 0.00 0.00 62 1068.5
20260507145337 13 194 4.8 6.4 0.00 0.00 0.00 63 1068.6
20260507144834 13 327 4.8 9.7 0.00 0.00 0.00 63 1068.5
20260507144332 13 245 3.2 6.4 0.00 0.00 0.00 63 1068.5
20260507143828 13 147 3.2 11.3 0.00 0.00 0.00 63 1068.7
20260507143325 13 268 4.8 9.7 0.00 0.00 0.00 64 1068.5
20260507142821 13 120 1.6 9.7 0.00 0.00 0.00 66 1068.6
20260507142318 12 165 3.2 6.4 0.00 0.00 0.00 66 1068.7
20260507141814 12 250 6.4 12.9 0.00 0.00 0.00 67 1068.6
20260507141312 12 287 6.4 9.7 0.00 0.00 0.00 70 1068.6
20260507140808 12 87 3.2 6.4 0.00 0.00 0.00 74 1068.8
20260507140305 11 189 1.6 4.8 0.00 0.00 0.00 76 1068.9
20260507135803 11 137 1.6 3.2 0.00 0.00 0.00 77 1069.0
20260507135300 11 135 0.0 4.8 0.00 0.00 0.00 78 1069.2
20260507134756 10 179 3.2 4.8 0.00 0.00 0.00 78 1068.8
20260507134252 10 110 6.4 9.7 0.00 0.00 0.00 79 1069.2
20260507133748 10 138 4.8 6.4 0.00 0.00 0.00 81 1068.9
20260507133245 10 168 3.2 4.8 0.00 0.00 0.00 81 1069.0
20260507132742 9 119 0.0 11.3 0.00 0.00 0.00 82 1069.0
20260507132239 9 67 3.2 4.8 0.00 0.00 0.00 83 1069.2
20260507131735 8 273 4.8 9.7 0.00 0.00 0.00 84 1069.0
20260507131233 8 189 1.6 4.8 0.00 0.00 0.00 86 1069.0
20260507130729 8 167 3.2 3.2 0.00 0.00 0.00 88 1069.4
20260507130227 7 218 1.6 1.6 0.00 0.00 0.00 89 1069.4
20260507125726 7 133 0.0 3.2 0.00 0.00 0.00 89 1069.3
20260507125223 7 137 0.0 3.2 0.00 0.00 0.00 90 1069.2
20260507124720 6 103 1.6 3.2 0.00 0.00 0.00 90 1069.3
20260507124217 6 110 1.6 4.8 0.00 0.00 0.00 91 1069.3
20260507123715 6 150 0.0 1.6 0.00 0.00 0.00 91 1068.8
20260507123212 6 143 0.0 1.6 0.00 0.00 0.00 92 1069.0
20260507122708 6 143 0.0 1.6 0.00 0.00 0.00 92 1069.3
20260507122203 5 167 3.2 3.2 0.00 0.00 0.00 93 1069.0
20260507121659 5 142 0.0 0.0 0.00 0.00 0.00 93 1069.2
20260507121155 5 143 1.6 1.6 0.00 0.00 0.00 94 1069.2
20260507120651 5 141 0.0 0.0 0.00 0.00 0.00 94 1068.9
20260507120148 5 140 0.0 0.0 0.00 0.00 0.00 94 1069.0
20260507115644 5 141 0.0 0.0 0.00 0.00 0.00 94 1069.2
20260507115140 5 143 0.0 0.0 0.00 0.00 0.00 94 1068.9
20260507114636 5 137 0.0 0.0 0.00 0.00 0.00 94 1068.8
20260507114134 5 139 0.0 0.0 0.00 0.00 0.00 94 1068.8
20260507113631 5 139 0.0 0.0 0.00 0.00 0.00 94 1068.9
20260507113127 5 130 0.0 0.0 0.00 0.00 0.00 94 1069.3
20260507112626 5 130 0.0 0.0 0.00 0.00 0.00 94 1068.9
20260507112122 5 139 0.0 0.0 0.00 0.00 0.00 94 1069.2
20260507111619 5 139 0.0 0.0 0.00 0.00 0.00 94 1068.9
20260507111116 5 135 0.0 0.0 0.00 0.00 0.00 94 1068.8
20260507110612 5 135 0.0 0.0 0.00 0.00 0.00 94 1069.2
20260507110109 5 137 0.0 0.0 0.00 0.00 0.00 93 1069.0
20260507105606 5 137 0.0 0.0 0.00 0.00 0.00 93 1068.9
20260507105102 5 143 0.0 0.0 0.00 0.00 0.00 93 1069.0
20260507104600 5 143 0.0 0.0 0.00 0.00 0.00 93 1068.9
20260507104055 5 143 0.0 0.0 0.00 0.00 0.00 93 1068.8
20260507103552 5 143 0.0 0.0 0.00 0.00 0.00 92 1068.8
20260507103049 5 145 0.0 0.0 0.00 0.00 0.00 92 1068.8
20260507102545 5 141 0.0 0.0 0.00 0.00 0.00 91 1068.8
20260507102041 5 141 0.0 0.0 0.00 0.00 0.00 91 1068.8
20260507101537 5 141 0.0 0.0 0.00 0.00 0.00 90 1069.0
20260507101033 5 150 0.0 0.0 0.00 0.00 0.00 90 1069.0
20260507100531 6 150 0.0 0.0 0.00 0.00 0.00 90 1069.0
20260507100029 6 150 0.0 0.0 0.00 0.00 0.00 89 1069.0
20260507095527 6 141 0.0 0.0 0.00 0.00 0.00 88 1069.2
20260507095023 6 142 0.0 0.0 0.00 0.00 0.00 88 1069.4
20260507094520 6 142 0.0 0.0 0.00 0.00 0.00 87 1069.3
20260507094017 6 142 0.0 0.0 0.00 0.00 0.00 87 1069.3
20260507093514 6 145 0.0 0.0 0.00 0.00 0.00 87 1069.5
20260507093013 7 145 0.0 0.0 0.00 0.00 0.00 86 1069.4
20260507092508 7 159 0.0 0.0 0.00 0.00 0.00 86 1069.4
20260507092006 7 159 0.0 0.0 0.00 0.00 0.00 85 1069.6
20260507091502 7 141 0.0 0.0 0.00 0.00 0.00 84 1069.5
20260507090958 7 145 0.0 0.0 0.00 0.00 0.00 83 1069.7
20260507090454 7 145 0.0 0.0 0.00 0.00 0.00 83 1069.7
20260507085951 7 146 0.0 0.0 0.00 0.00 0.00 82 1069.6
20260507085448 7 146 0.0 0.0 0.00 0.00 0.00 82 1069.6
20260507084944 8 146 0.0 1.6 0.00 0.00 0.00 81 1069.8
20260507084441 8 135 0.0 0.0 0.00 0.00 0.00 81 1069.6
20260507083938 8 144 0.0 1.6 0.00 0.00 0.00 81 1069.7
20260507083434 8 132 1.6 4.8 0.00 0.00 0.00 81 1069.8
20260507082931 8 135 0.0 0.0 0.00 0.00 0.00 81 1069.8
20260507082427 8 123 0.0 0.0 0.00 0.00 0.00 81 1070.0
20260507081924 8 137 0.0 0.0 0.00 0.00 0.00 80 1069.9
20260507081420 8 130 0.0 0.0 0.00 0.00 0.00 80 1069.8
20260507080917 8 121 0.0 0.0 0.00 0.00 0.00 80 1069.9
20260507080414 8 121 0.0 0.0 0.00 0.00 0.00 79 1069.9
20260507075908 8 121 0.0 0.0 0.00 0.00 0.00 78 1069.9
20260507075405 8 138 0.0 0.0 0.00 0.00 0.00 78 1069.8
20260507074901 8 139 0.0 0.0 0.00 0.00 0.00 77 1069.9
20260507074358 8 130 0.0 0.0 0.00 0.00 0.00 76 1070.0
20260507073856 9 121 0.0 0.0 0.00 0.00 0.00 77 1070.0
20260507073352 9 140 0.0 0.0 0.00 0.00 0.00 77 1070.1
20260507072849 9 140 0.0 0.0 0.00 0.00 0.00 76 1069.9
20260507072347 9 140 0.0 0.0 0.00 0.00 0.00 76 1069.9
20260507071844 9 121 0.0 0.0 0.00 0.00 0.00 76 1070.0
20260507071341 8 135 0.0 0.0 0.00 0.00 0.00 76 1070.1
20260507070837 9 135 0.0 0.0 0.00 0.00 0.00 75 1070.2
20260507070335 9 138 0.0 0.0 0.00 0.00 0.00 75 1070.3
20260507065831 9 135 0.0 0.0 0.00 0.00 0.00 75 1070.3
20260507065328 9 135 0.0 0.0 0.00 0.00 0.00 75 1070.4
20260507064825 9 135 0.0 0.0 0.00 0.00 0.00 75 1070.3
20260507064324 9 138 0.0 0.0 0.00 0.00 0.00 75 1070.8
20260507063821 9 135 0.0 0.0 0.00 0.00 0.00 75 1070.6
20260507063318 9 121 0.0 0.0 0.00 0.00 0.00 75 1070.7
20260507062815 9 135 0.0 0.0 0.00 0.00 0.00 74 1070.4
20260507062312 8 136 0.0 0.0 0.00 0.00 0.00 74 1070.4
20260507061810 8 128 0.0 0.0 0.00 0.00 0.00 76 1070.4
20260507061308 8 127 0.0 0.0 0.00 0.00 0.00 78 1070.4
20260507060806 8 127 0.0 0.0 0.00 0.00 0.00 77 1070.5
20260507060302 8 127 0.0 0.0 0.00 0.00 0.00 76 1070.5
20260507055758 9 127 0.0 0.0 0.00 0.00 0.00 75 1070.5
20260507055254 9 127 0.0 0.0 0.00 0.00 0.00 74 1070.5
20260507054750 9 127 0.0 0.0 0.00 0.00 0.00 73 1070.4
20260507054247 9 127 0.0 0.0 0.00 0.00 0.00 75 1070.2
20260507053744 9 127 0.0 0.0 0.00 0.00 0.00 75 1070.2
20260507053242 9 127 0.0 0.0 0.00 0.00 0.00 74 1070.6
20260507052741 9 127 0.0 0.0 0.00 0.00 0.00 74 1070.4
20260507052237 9 127 0.0 0.0 0.00 0.00 0.00 74 1070.4
20260507051735 9 127 0.0 0.0 0.00 0.00 0.00 74 1070.5
20260507051231 9 127 0.0 0.0 0.00 0.00 0.00 75 1070.4
20260507050728 9 127 0.0 0.0 0.00 0.00 0.00 74 1070.4
20260507050225 9 127 0.0 0.0 0.00 0.00 0.00 74 1070.5
20260507045722 9 127 0.0 0.0 0.00 0.25 0.25 73 1070.6
20260507045218 9 148 0.0 0.0 0.00 0.25 0.25 73 1070.6
20260507044716 9 129 0.0 0.0 0.00 0.25 0.25 76 1070.5
20260507044212 9 136 0.0 0.0 0.00 0.25 0.25 77 1070.6
20260507043709 8 119 0.0 0.0 0.00 0.25 0.25 78 1070.5
20260507043205 8 119 0.0 0.0 0.00 0.25 0.25 78 1070.3
20260507042702 8 119 0.0 0.0 0.00 0.25 0.25 78 1070.4
20260507042156 8 119 0.0 0.0 0.00 0.25 0.25 77 1070.4
20260507041654 8 119 0.0 0.0 0.00 0.25 0.25 78 1070.1
20260507041150 8 119 0.0 0.0 0.00 0.25 0.25 77 1070.4
20260507040647 8 119 0.0 0.0 0.00 0.25 0.25 77 1070.2
20260507040144 8 119 0.0 0.0 0.00 0.25 0.25 77 1070.3
20260507035639 8 119 0.0 0.0 0.00 0.25 0.25 76 1070.3
20260507035135 8 119 0.0 0.0 0.00 0.25 0.25 78 1070.5
20260507034633 8 119 0.0 0.0 0.00 0.25 0.25 76 1070.6
20260507034130 8 119 0.0 0.0 0.00 0.25 0.25 75 1070.6
20260507033629 8 119 0.0 0.0 0.00 0.25 0.25 75 1070.6
20260507033125 8 119 0.0 0.0 0.00 0.25 0.25 74 1070.5
20260507032623 8 119 0.0 0.0 0.00 0.25 0.25 73 1070.5
20260507032119 8 119 0.0 0.0 0.00 0.25 0.25 72 1070.5
20260507031615 9 119 0.0 0.0 0.00 0.25 0.25 70 1070.3
20260507031112 9 119 0.0 0.0 0.00 0.25 0.25 69 1070.4
20260507030608 10 119 0.0 0.0 0.00 0.25 0.25 67 1070.5
20260507030107 10 119 0.0 0.0 0.00 0.25 0.25 67 1070.5
20260507025603 10 119 0.0 0.0 0.00 0.25 0.25 64 1070.2
20260507025100 10 119 0.0 0.0 0.00 0.25 0.25 62 1070.4
20260507024559 10 119 0.0 0.0 0.00 0.25 0.25 61 1070.3
20260507024055 11 119 0.0 0.0 0.00 0.25 0.25 59 1070.3
20260507023551 11 119 0.0 0.0 0.00 0.25 0.25 58 1070.1
20260507023049 11 119 0.0 0.0 0.00 0.25 0.25 58 1070.0
20260507022545 12 119 0.0 0.0 0.00 0.25 0.25 56 1070.2
20260507022040 12 119 0.0 0.0 0.00 0.25 0.25 55 1070.1
20260507021537 12 118 0.0 0.0 0.00 0.25 0.25 53 1070.2
20260507021033 12 118 0.0 0.0 0.00 0.25 0.25 52 1070.1
20260507020531 12 115 0.0 0.0 0.00 0.25 0.25 52 1070.0
20260507020027 12 113 0.0 1.6 0.00 0.25 0.25 52 1070.0
20260507015526 12 108 0.0 0.0 0.00 0.25 0.25 52 1069.8
20260507015023 12 124 0.0 0.0 0.00 0.25 0.25 50 1069.8
20260507014519 13 128 0.0 0.0 0.00 0.25 0.25 50 1069.7
20260507014015 13 118 0.0 0.0 0.00 0.25 0.25 49 1069.7
20260507013512 13 119 0.0 0.0 0.00 0.25 0.25 50 1069.6
20260507013009 13 113 0.0 3.2 0.00 0.25 0.25 48 1069.4
20260507012506 13 118 0.0 1.6 0.00 0.25 0.25 48 1069.4
20260507012003 13 119 0.0 3.2 0.00 0.25 0.25 48 1069.3
20260507011500 13 122 0.0 1.6 0.00 0.25 0.25 48 1069.4
20260507010955 13 109 0.0 3.2 0.00 0.25 0.25 46 1069.4
20260507010450 13 110 1.6 4.8 0.00 0.25 0.25 45 1069.4
20260507005947 13 116 0.0 1.6 0.00 0.25 0.25 45 1069.3
20260507005445 13 120 0.0 3.2 0.00 0.25 0.25 45 1069.3
20260507004941 13 126 0.0 3.2 0.00 0.25 0.25 45 1069.2
20260507004438 14 119 0.0 3.2 0.00 0.25 0.25 46 1069.3
20260507003936 14 104 1.6 3.2 0.00 0.25 0.25 45 1069.2
20260507003430 14 122 0.0 1.6 0.00 0.25 0.25 47 1069.0
20260507002926 14 120 0.0 1.6 0.00 0.25 0.25 45 1069.0
20260507002422 14 118 0.0 4.8 0.00 0.25 0.25 46 1069.0
20260507001919 15 137 0.0 3.2 0.00 0.25 0.25 45 1068.9
20260507001416 15 125 0.0 1.6 0.00 0.25 0.25 47 1069.3
20260507000914 15 128 0.0 1.6 0.00 0.25 0.25 45 1069.2
20260507000408 15 119 0.0 3.2 0.00 0.25 0.25 46 1069.3
20260506235905 15 100 0.0 1.6 0.00 0.25 0.25 47 1069.0
20260506235402 15 83 1.6 4.8 0.00 0.25 0.25 46 1068.9
20260506234858 15 122 0.0 3.2 0.00 0.25 0.25 45 1069.2
20260506234356 15 122 0.0 1.6 0.00 0.25 0.25 46 1069.0
20260506233853 15 124 1.6 1.6 0.00 0.25 0.25 45 1068.9
20260506233349 15 127 0.0 0.0 0.00 0.25 0.25 47 1068.8
20260506232846 15 91 4.8 4.8 0.00 0.25 0.25 44 1069.2
20260506232342 15 134 0.0 3.2 0.00 0.25 0.25 45 1068.9
20260506231838 15 122 0.0 3.2 0.00 0.25 0.25 45 1069.0
20260506231336 15 120 0.0 1.6 0.00 0.25 0.25 44 1068.9
20260506230833 15 131 0.0 0.0 0.00 0.25 0.25 45 1068.9
20260506230330 15 133 0.0 3.2 0.00 0.25 0.25 45 1069.0
20260506225826 15 119 1.6 3.2 0.00 0.25 0.25 45 1069.3
20260506225324 15 118 1.6 1.6 0.00 0.25 0.25 46 1069.3
20260506224820 16 103 3.2 4.8 0.00 0.25 0.25 45 1069.0
20260506224318 17 147 0.0 1.6 0.00 0.25 0.25 42 1068.9
20260506223814 17 122 1.6 3.2 0.00 0.25 0.25 43 1068.7
20260506223309 16 116 0.0 6.4 0.00 0.25 0.25 44 1068.8
20260506222807 16 42 3.2 9.7 0.00 0.25 0.25 45 1068.7
20260506222305 15 126 0.0 3.2 0.00 0.25 0.25 47 1068.9
20260506221800 15 129 1.6 6.4 0.00 0.25 0.25 46 1068.8
20260506221258 16 92 1.6 3.2 0.00 0.25 0.25 45 1069.0
20260506220755 15 129 0.0 4.8 0.00 0.25 0.25 46 1068.7
20260506220249 15 122 1.6 4.8 0.00 0.25 0.25 47 1068.9
20260506215747 15 123 1.6 4.8 0.00 0.25 0.25 49 1069.0
20260506215242 15 140 1.6 4.8 0.00 0.25 0.25 48 1068.9
20260506214739 15 149 0.0 4.8 0.00 0.25 0.25 47 1069.2
20260506214236 15 108 4.8 6.4 0.00 0.25 0.25 46 1069.3
20260506213734 15 84 1.6 4.8 0.00 0.25 0.25 47 1069.3
20260506213231 15 143 1.6 4.8 0.00 0.25 0.25 47 1069.0
20260506212729 15 121 0.0 3.2 0.00 0.25 0.25 48 1069.0
20260506212224 15 109 3.2 6.4 0.00 0.25 0.25 47 1069.4
20260506211719 15 120 3.2 6.4 0.00 0.25 0.25 46 1069.4
20260506211216 16 94 3.2 6.4 0.00 0.25 0.25 45 1069.4
20260506210713 16 123 1.6 4.8 0.00 0.25 0.25 42 1069.4
20260506210210 16 200 3.2 4.8 0.00 0.25 0.25 43 1069.4
20260506205707 17 120 1.6 6.4 0.00 0.25 0.25 43 1069.4
20260506205202 17 102 0.0 3.2 0.00 0.25 0.25 43 1069.6
20260506204659 16 126 1.6 6.4 0.00 0.25 0.25 43 1069.5
20260506204156 16 105 0.0 3.2 0.00 0.25 0.25 44 1069.4
20260506203654 17 95 1.6 3.2 0.00 0.25 0.25 40 1069.6
20260506203151 16 124 3.2 3.2 0.00 0.25 0.25 44 1069.7
20260506202650 16 122 1.6 1.6 0.00 0.25 0.25 42 1069.8
20260506202145 16 131 0.0 3.2 0.00 0.25 0.25 42 1069.9
20260506201642 16 87 3.2 3.2 0.00 0.25 0.25 40 1069.9
20260506201138 16 306 1.6 3.2 0.00 0.25 0.25 40 1070.1
20260506200635 16 63 3.2 6.4 0.00 0.25 0.25 42 1070.2
20260506200132 16 99 1.6 4.8 0.00 0.25 0.25 41 1070.1
20260506195629 16 246 1.6 4.8 0.00 0.25 0.25 41 1070.2
20260506195125 16 141 3.2 9.7 0.00 0.25 0.25 41 1070.3
20260506194623 16 98 0.0 1.6 0.00 0.25 0.25 43 1070.4
20260506194119 15 112 3.2 6.4 0.00 0.25 0.25 44 1070.4
20260506193617 16 148 1.6 3.2 0.00 0.25 0.25 43 1070.5
20260506193114 15 106 3.2 9.7 0.00 0.25 0.25 42 1070.4
20260506192611 15 124 0.0 4.8 0.00 0.25 0.25 44 1070.3
20260506192106 15 127 4.8 6.4 0.00 0.25 0.25 44 1070.4
20260506191603 15 189 1.6 6.4 0.00 0.25 0.25 44 1070.3
20260506191059 16 92 3.2 9.7 0.00 0.25 0.25 46 1070.2
20260506190557 15 132 0.0 3.2 0.00 0.25 0.25 44 1070.4
20260506190053 15 137 0.0 4.8 0.00 0.25 0.25 44 1070.2
20260506185551 14 143 1.6 4.8 0.00 0.25 0.25 45 1070.3
20260506185047 15 177 8.0 11.3 0.00 0.25 0.25 46 1070.3
20260506184544 15 71 3.2 6.4 0.00 0.25 0.25 46 1070.3
20260506184042 15 98 1.6 3.2 0.00 0.25 0.25 45 1070.5
20260506183537 15 127 3.2 4.8 0.00 0.25 0.25 51 1070.4
20260506183034 14 133 3.2 6.4 0.00 0.25 0.25 49 1070.8
20260506182532 15 358 4.8 4.8 0.00 0.25 0.25 50 1070.7
20260506182029 14 100 1.6 4.8 0.00 0.25 0.25 50 1070.7
20260506181527 14 126 3.2 9.7 0.00 0.25 0.25 49 1070.8
20260506181023 14 130 1.6 3.2 0.00 0.25 0.25 53 1071.0
20260506180520 13 92 3.2 4.8 0.00 0.25 0.25 50 1070.8
20260506180016 13 89 1.6 3.2 0.00 0.25 0.25 52 1071.1
20260506175513 13 118 1.6 4.8 0.00 0.25 0.25 51 1071.2
20260506175009 13 107 4.8 9.7 0.00 0.25 0.25 53 1071.3
20260506174508 12 110 0.0 4.8 0.00 0.25 0.25 55 1071.3
20260506174004 12 124 1.6 4.8 0.00 0.25 0.25 57 1071.3
20260506173502 12 173 3.2 4.8 0.00 0.25 0.25 55 1071.1
20260506172958 12 94 3.2 9.7 0.00 0.25 0.25 59 1071.3
20260506172456 12 123 0.0 4.8 0.00 0.25 0.25 57 1071.3
20260506171952 12 87 1.6 3.2 0.00 0.25 0.25 59 1071.3
20260506171449 12 78 3.2 4.8 0.00 0.25 0.25 64 1071.2
20260506170947 12 122 0.0 9.7 0.00 0.25 0.25 63 1071.1
20260506170444 11 115 1.6 4.8 0.00 0.25 0.25 67 1071.3